Other Public Products
Issued by NWS Grand Forks, ND

Home | Current Version | Previous Version | Text Only | Print | Product List | Glossary Off
Versions: 1 2 3 4 5 6 7 8 9 10 11 12 13 14 15 16 17 18 19 20 21 22 23 24 25 26 27 28 29 30 31 32 33 34 35 36 37 38 39 40 41 42 43 44 45 46 47 48 49 50

000
FPUS83 KFGF 261310
OPUFGF
PRAIRIE TO PINES WEATHER ROUNDUP
NATIONAL WEATHER SERVICE EASTERN NORTH DAKOTA/GRAND FORKS ND
700 AM CST WED NOV 26 2014

 **SATELLITE DATA USED TO AUGMENT SKY COVER AT AUTOMATED STATIONS**
 *****  WEATHER ACROSS EASTERN NORTH DAKOTA  *****

CITY           SKY/WX    TMP DP  RH WIND       PRES   REMARKS
GRAND FORKS    CLOUDY    -1  -7  75 N15       30.37R WCI -21
GRAND FORKS AF CLOUDY    -2  -7  79 N12       30.37R WCI -19
GRAND CITY NWS   N/A     -2 N/A N/A N7          N/A  WCI -16
BUXTON         NOT AVBL
DEVILS LAKE    CLOUDY     0 N/A N/A N9        30.30R WCI -16
FARGO          CLOUDY     4  -1  80 N15       30.29R HAZE    WCI -14
WAHPETON ARPT  CLOUDY    10   5  79 N20       30.23R WCI  -8
$$

 *****  WEATHER ACROSS CENTRAL AND WESTERN NORTH DAKOTA  *****

CITY           SKY/WX    TMP DP  RH WIND       PRES   REMARKS
JAMESTOWN      CLOUDY     1  -3  83 N13       30.29R WCI -17
BISMARCK       CLOUDY     6   1  80 NE6       30.30S WCI  -4
MINOT          LGT SNOW   5   0  79 N6        30.31R WCI  -6
MINOT AFB      FLURRIES   4   1  86 NE7       30.31R WCI  -8
GARRISON         N/A      7   3  84 NE3       30.27R
WILLISTON      CLOUDY    12   6  77 NE10      30.28R WCI  -1
DICKINSON      LGT SNOW  20  16  84 CALM      30.18R FOG
HETTINGER      CLOUDY    21  18  88 CALM      30.20R
$$

 *****  OTHER OBSERVATIONS NORTHEAST NORTH DAKOTA  *****

CITY           SKY/WX    TMP DP  RH WIND       PRES   REMARKS
WALHALLA         N/A     -4  -9  77 N8        30.41R WCI -19
LANGDON        CLOUDY    -2  -8  78 N10       30.31R WCI -19
CAVALIER       CLOUDY    -2  -8  78 N13       30.40R WCI -21
GRAFTON        CLOUDY     0  -8  71 N16       30.40R WCI -21
CANDO          CLOUDY     0  -4  85 N10       30.34R WCI -17
FORT TOTTEN      N/A      0  -7  71 N5        29.95S WCI -10
ROLLA          CLOUDY    -2  -8  78 N12       30.32R WCI -20
RUGBY          FLURRIES   1  -2  85 NE5       30.33R WCI  -8
 ***** THE ABOVE OBSERVATIONS ARE NON NWS ARE NOT QUALITY
        CONTROLLED AND MAY MIS-REPORT RAIN FOR SNOW...
$$

 *****  OTHER OBSERVATIONS SOUTHEAST NORTH DAKOTA *****

CITY           SKY/WX    TMP DP  RH WIND       PRES   REMARKS
COOPERSTOWN    NOT AVBL
VALLEY CITY    PTSUNNY    1  -4  78 N10       30.29R WCI -14
OAKES            N/A      5   0  78 N16       30.26R WCI -14
GWINNER        CLOUDY     9   1  72 N17G28    30.27R WCI -10
SHEYENNE NWR     N/A      7   1  76 N7        29.95S WCI  -5
BUFFALO        NOT AVBL
WYNDMERE         N/A      7   3  85 N14         N/A  WCI -10
 ***** THE ABOVE OBSERVATIONS ARE NON NWS ARE NOT QUALITY
       CONTROLLED AND MAY MIS-REPORT RAIN FOR SNOW...
$$

  *****  WEATHER ACROSS NORTHERN MINNESOTA  *****

CITY           SKY/WX    TMP DP  RH WIND       PRES   REMARKS
FLAG ISLAND    CLEAR     -8 -11  84 NW8       30.29R WCI -23
WARROAD        CLEAR     -6 -11  77 NW7       30.30R WCI -20
ROSEAU         PTCLDY    -6 -11  77 N6        30.31R WCI -18
HALLOCK        PTCLDY    -6  -9  84 MISG      30.38R
THF RVR FALLS  CLOUDY     0  -6  78 N10       30.29R WCI -17
HALSTAD          N/A      1  -4  81 N24         N/A  WCI -23
FOSSTON        CLOUDY     1   0  92 N15       30.25R WCI -18
BAUDETTE       CLEAR      0  -5  79 N13       30.25R WCI -18
WASKISH        PTCLDY     5   1  85 NW6       30.24R WCI  -6
CROOKSTON      PTCLDY    -2  -6  84 N13       30.34R WCI -21
$$
  *****  WEATHER ACROSS CENTRAL AND WEST MINNESOTA  *****

CITY           SKY/WX    TMP DP  RH WIND       PRES   REMARKS
BEMIDJI        FLURRIES  10   6  84 N10       30.19R WCI  -3
PARK RAPIDS    CLOUDY    15  10  80 N14       30.15R WCI   0
WADENA         MOCLDY    16  12  86 N7        30.14R WCI   6
DETROIT LAKES  PTCLDY    12  10  92 N15       30.19R WCI  -4
MOORHEAD       CLOUDY     5   3  92 N21       30.28R FOG     WCI -16
FERGUS FALLS   MOCLDY    16   9  73 N12G17    30.21R WCI   3
ELBOW LAKE       N/A     18  15  87 N10       30.15R WCI   6
MORRIS MN      CLOUDY    19  18  93 N16       30.13R WCI   5
STAPLES        FLURRIES  18  14  86 N7        30.13R WCI   8
WHEATON        FLURRIES   9   7  92 NW21G28   30.22R WCI -11
$$
  *****  WEATHER ELSEWHERE ACROSS MINNESOTA  *****

CITY           SKY/WX    TMP DP  RH WIND       PRES   REMARKS
DULUTH         LGT SNOW  18  13  80 N6        30.10R WCI  10
INTRNTL FALLS  PTCLDY     6   2  83 N12       30.20R WCI  -9
ELY            LGT SNOW  12  10  92 CALM      30.11R
CLOQUET        LGT SNOW  18  12  79 NW5       30.11R WCI  11
BRAINERD       LGT SNOW  17  14  88 N10       30.13R FOG     WCI   5
HIBBING        CLOUDY    16  10  77 N7        30.13R WCI   6
ALEXANDRIA     LGT SNOW  20  15  81 N14       30.12R WCI   7
SAINT CLOUD    LGT SNOW  23  17  78 N6        30.11R WCI  16
MINNEAPOLIS    LGT SNOW  22  19  89 NE7       30.09R FOG     WCI  13
$$

  *****  WEATHER ACROSS SOUTH DAKOTA  *****

CITY           SKY/WX    TMP DP  RH WIND       PRES   REMARKS
SIOUX FALLS    CLOUDY    26  22  84 N22G30    30.01R WCI  12
BROOKINGS      NOT AVBL
WATERTOWN      LGT SNOW  15  11  83 N22       30.10R FOG     WCI  -3
HURON          LGT SNOW  14  10  84 N26G35    30.17R FOG     WCI  -6
SISSETON         N/A     10   7  87 N20       30.21R WCI  -9
ABERDEEN       PTCLDY     8   3  80 N21       30.26R WCI -12
MITCHELL       FLURRIES  22  18  85 N22G33    30.14R WCI   6
PIERRE         CLOUDY    19  14  81 N15G24    30.25R WCI   5
MOBRIDGE       CLOUDY    16  10  77 N13       30.24R WCI   2
RAPID CITY     CLOUDY    25  20  81 N8        30.17S WCI  16
$$

  *****  SOME WEATHER IN NEARBY STATES *****

CITY           SKY/WX    TMP DP  RH WIND       PRES   REMARKS
GLASGOW MT     CLOUDY    21  16  81 E5        30.24R WCI  15
GREAT FALLS MT LGT SNOW  30  29  96 SW5       30.12F FOG
CHEYENNE WY    FLURRIES  22  19  89 N9        30.14S WCI  12
SCOTTSBLUFF NE CLOUDY    30  24  78 NW8       30.19R WCI  22
OMAHA NE       LGT RAIN  39  34  82 NW18G31   29.89R
DES MOINES IA  LGT SNOW  30  27  88 E10       29.88R FOG     WCI  21
DAVENPORT IA   CLOUDY    20  16  84 SE8       30.07S WCI  10
CHICAGO IL     CLOUDY    19  16  88 CALM      30.14F FOG
EAU CLAIRE WI  CLOUDY    21  15  78 E5        30.10R WCI  15
LA CROSSE WI   CLOUDY    20  15  81 E8        30.11R WCI  10
$$

  *****  SOME NATIONAL WEATHER *****

CITY           SKY/WX    TMP DP  RH WIND       PRES   REMARKS
LA GUARDIA NY  LGT RAIN  41  34  76 NE13      30.17R
RALEIGH NC     RAIN      46  42  86 NE16G30   29.90S FOG
ATLANTA GA     PTCLDY    43  32  65 NW12      30.04R
NEW ORLEANS LA PTCLDY    39  36  89 S3        30.26R
OKLAHOMA CITY  MOCLDY    41  28  60 N13       30.06R
ALBUQUERQUE NM PTCLDY    29   7  39 SE7       30.35R WCI  22
SALT LAKE CITY PTCLDY    36  28  73 SE9       30.35R
LOS ANGELES CA CLEAR     55  26  32 CALM      30.22S
BOISE ID       PTCLDY    39  35  86 CALM      30.31R
SEATTLE WA     MOCLDY    55  52  89 S13       30.15F
$$

*** WEATHER ACROSS MANITOBA...SASKATCHEWAN AND ONTARIO ***
                ***ONTARIO***

CITY           SKY/WX    TMP DP  RH WIND       PRES   REMARKS
GERALDTON      FLURRIES   0  -2  92 E6        30.18R WCI -12
THUNDER BAY    FLURRIES  14   9  79 N6        30.17R WCI   5
SIOUX LOOKOUT  NOT AVBL
TORONTO        CLOUDY    34  23  64 NE5       30.21R
BIG TROUT LK   FLURRIES -26 -31  75 W6        30.24R WCI -42
PICKLE LAKE    PTCLDY   -22 -27  76 W7        30.22R WCI -39
DRYDEN         CLEAR     -9 -11  92 N5        30.22R WCI -21
KENORA         PTCLDY   -11 -15  84 N6        30.25R WCI -25
$$
                *** MANITOBA***

CITY           SKY/WX    TMP DP  RH WIND       PRES   REMARKS
BRANDON        PTCLDY    -6 -11  77 CALM      30.39R
DAUPHIN        CLEAR    -24 -31  69 W7        30.43R WCI -42
ISLAND LAKE    CLEAR    -20 -27  69 W8        30.31R WCI -39
PILOT MOUND      N/A     -8 -13  77 N8          N/A  WCI -23
THE PAS        CLEAR    -18 -24  76 NW7       30.43R WCI -35
THOMPSON       CLEAR    -26 -33  68 W3        30.35R
WINNIPEG       CLEAR    -20 -26  76 NW7       30.42R WCI -37
LYNN LAKE      CLEAR    -22 -27  76 W8        30.33R WCI -41
CHURCHILL      CRYSTALS -11 -17  77 NW15      30.23R WCI -34
GILLAM         MOCLDY   -17 -24  70 W13G18    30.28R WCI -39
$$
                ***SASKATCHEWAN***

CITY           SKY/WX    TMP DP  RH WIND       PRES   REMARKS
ESTEVAN        FLURRIES   1  -4  78 N9        30.30R WCI -14
KINDERSLEY     FLURRIES  10   7  85 SE6       30.25F WCI   1
LLOYDMINSTER   CLOUDY     0  -4  85 SE8       30.26S WCI -15
PRINCE ALBERT  CRYSTALS -27 -33  75 CALM      30.42S
REGINA         CLEAR     -4  -8  84 NE6       30.34R WCI -16



USA.gov is the U.S. government's official web portal to all federal, state and local government web resources and services.